Dewpoint
70 66 66 67 64 62 64 64 68 71 72 73 72 73 73 71 70 70 70 72 73 66
69 69 66 68 67 64 70 67 70 71 72 72 72 73 74 75 70 72 71 71 72 70
68 70 68 68 70 69 68 71 71 72 72 72 72 73 74 71 71 73 70 68 71 72
69 69 70 69 70 71 71 71 73 73 72 72 72 73 74 75 73 72 74 72 71 72
70 70 69 70 70 71 72 71 72 72 72 72 72 72 73 72 70 70 71 72 74 71
69 70 70 70 71 71 72 72 71 72 73 73 72 72 73 73 72 71 70 70 71 71
70 70 70 71 73 73 73 73 73 72 73 72 73 73 73 73 72 72 70 71 72 72
72 71 72 73 73 74 74 73 74 73 73 73 71 69 73 72 71 71 71 71 71 72
73 73 73 73 74 74 75 75 75 75 74 73 71 65 66 68 69 70 70 70 70 71
73 73 74 73 73 73 76 76 75 74 73 72 71 58 57 57 66 68 70 71 70 69
73 73 74 74 73 74 73 73 73 71 70 68 66 55 54 55 59 60 63 66 68 69
72 73 74 73 72 70 69 67 66 64 62 62 61 54 54 55 58 58 60 60 61 62
74 72 71 70 68 65 64 61 57 59 61 56 60 55 54 55 54 56 55 59 60 58
66 65 66 65 64 62 60 61 61 61 62 61 59 59 54 54 55 55 55 55 55 56
Lifted_Index
-2 -2 -2 -2 -2 -2 -2 -3 -3 -4 -5 -5 -5 -5 -5 -5 -4 -4 -4 -4 -4 -4
-2 -2 -2 -2 -2 -2 -3 -3 -4 -5 -5 -5 -5 -5 -5 -5 -4 -5 -5 -4 -4 -4
-3 -3 -3 -2 -3 -3 -3 -4 -4 -5 -5 -5 -5 -5 -5 -5 -5 -5 -5 -5 -4 -5
-4 -4 -3 -3 -3 -3 -3 -4 -4 -5 -5 -5 -5 -5 -5 -5 -5 -5 -5 -5 -5 -5
-4 -4 -4 -4 -4 -4 -4 -4 -4 -5 -5 -5 -5 -5 -5 -5 -5 -4 -5 -5 -5 -5
-5 -5 -4 -4 -4 -5 -5 -5 -5 -5 -5 -5 -5 -5 -5 -5 -5 -5 -4 -4 -5 -5
-5 -5 -5 -5 -5 -5 -5 -5 -5 -5 -5 -5 -5 -5 -5 -5 -5 -5 -4 -4 -4 -5
-5 -5 -5 -5 -6 -6 -6 -6 -6 -6 -6 -6 -5 -5 -5 -5 -4 -4 -4 -4 -4 -4
-6 -6 -6 -6 -6 -6 -6 -7 -7 -6 -6 -6 -5 -4 -4 -3 -3 -3 -3 -3 -4 -4
-7 -7 -7 -7 -6 -6 -7 -7 -6 -6 -5 -5 -4 -3 -3 -2 -1 -1 -1 -1 -2 -2
-7 -7 -8 -7 -6 -6 -5 -5 -5 -4 -4 -3 -2 -1 -0 1 2 3 3 2 1 1
-8 -7 -7 -6 -5 -4 -4 -3 -3 -2 -1 -1 1 2 4 6 7 7 7 6 5 5
-6 -6 -5 -5 -4 -3 -2 -2 -1 -0 1 3 4 6 8 9 10 9 8 8 8 8
-4 -4 -3 -3 -2 -2 -1 -1 -0 1 3 5 6 8 9 10 10 10 9 9 9 9